When you browse on this site, cookies collect data to enhance your experience and personalize the content and advertising you see.
Visit our Privacy Policy to learn more. By continuing to use the site, you agree to this use of cookies and data.

Previsão horária em Aalen

Hoje, 28 Setembro, Segunda-feira

Tempo Temperatura Precipitação Vento Pressão Humidade
00:00 +5°C° 0 mm 0 m/s 716 mmHg 89%
01:00 +5°C° 0 mm 0 m/s 716 mmHg 90%
02:00 +5°C° 0 mm 0 m/s 716 mmHg 90%
03:00 +5°C° 0 mm 0 m/s 716 mmHg 90%
04:00 +5°C° 0 mm 0 m/s 716 mmHg 90%
05:00 +5°C° 0 mm 0 m/s 716 mmHg 90%
06:00 +6°C° 0 mm 1 m/s 717 mmHg 89%
07:00 +6°C° 0 mm 1 m/s 717 mmHg 89%
08:00 +8°C° 0 mm 1 m/s 717 mmHg 81%
09:00 +11°C° 0 mm 1 m/s 718 mmHg 73%
10:00 +13°C° 0 mm 1 m/s 718 mmHg 66%
11:00 +14°C° 0 mm 1 m/s 718 mmHg 62%
12:00 +15°C° 0 mm 1 m/s 718 mmHg 58%
13:00 +16°C° 0 mm 1 m/s 718 mmHg 55%
14:00 +15°C° 0.1 mm 1 m/s 718 mmHg 56%
15:00 +15°C° 0.1 mm 1 m/s 718 mmHg 58%
16:00 +15°C° 0.1 mm 1 m/s 718 mmHg 59%
17:00 +13°C° 0 mm 1 m/s 719 mmHg 65%
18:00 +12°C° 0 mm 1 m/s 719 mmHg 71%
19:00 +9°C° 0 mm 0 m/s 719 mmHg 77%
20:00 +10°C° 0 mm 1 m/s 720 mmHg 79%
21:00 +9°C° 0 mm 1 m/s 720 mmHg 82%
22:00 +8°C° 0 mm 1 m/s 720 mmHg 85%
23:00 +8°C° 0 mm 1 m/s 721 mmHg 85%

Amanhã, 29 Setembro, Terça-feira

Tempo Temperatura Precipitação Vento Pressão Humidade
00:00 +8°C° 0 mm 1 m/s 721 mmHg 86%
01:00 +8°C° 0 mm 1 m/s 721 mmHg 86%
02:00 +7°C° 0 mm 1 m/s 721 mmHg 88%
03:00 +7°C° 0 mm 1 m/s 721 mmHg 90%
04:00 +6°C° 0 mm 2 m/s 721 mmHg 91%
05:00 +6°C° 0 mm 2 m/s 721 mmHg 92%
06:00 +6°C° 0 mm 2 m/s 721 mmHg 93%
07:00 +6°C° 0 mm 2 m/s 722 mmHg 94%
08:00 +8°C° 0 mm 2 m/s 722 mmHg 88%
09:00 +12°C° 0 mm 2 m/s 722 mmHg 82%
10:00 +14°C° 0 mm 2 m/s 722 mmHg 76%
11:00 +14°C° 0.1 mm 2 m/s 723 mmHg 78%
12:00 +13°C° 0.1 mm 2 m/s 723 mmHg 81%
13:00 +12°C° 0.1 mm 3 m/s 723 mmHg 84%
14:00 +12°C° 0 mm 3 m/s 723 mmHg 85%
15:00 +13°C° 0 mm 2 m/s 723 mmHg 86%
16:00 +13°C° 0 mm 2 m/s 723 mmHg 87%
17:00 +12°C° 0 mm 2 m/s 723 mmHg 89%
18:00 +10°C° 0 mm 2 m/s 723 mmHg 91%
19:00 +10°C° 0 mm 2 m/s 723 mmHg 93%
20:00 +9°C° 0 mm 2 m/s 723 mmHg 94%
21:00 +10°C° 0 mm 1 m/s 723 mmHg 94%
22:00 +10°C° 0 mm 1 m/s 723 mmHg 95%
23:00 +10°C° 0 mm 1 m/s 723 mmHg 95%

Depois de amanhã, 30 Setembro, Quarta-feira

Tempo Temperatura Precipitação Vento Pressão Humidade
00:00 +9°C° 0 mm 1 m/s 723 mmHg 95%
01:00 +9°C° 0 mm 1 m/s 723 mmHg 94%
02:00 +9°C° 0 mm 1 m/s 723 mmHg 94%
03:00 +9°C° 0 mm 1 m/s 722 mmHg 93%
04:00 +9°C° 0 mm 1 m/s 722 mmHg 93%
05:00 +9°C° 0 mm 1 m/s 722 mmHg 93%
06:00 +9°C° 0 mm 1 m/s 722 mmHg 93%
07:00 +9°C° 0 mm 1 m/s 722 mmHg 92%
08:00 +11°C° 0 mm 1 m/s 722 mmHg 87%
09:00 +13°C° 0 mm 1 m/s 722 mmHg 82%
10:00 +14°C° 0 mm 1 m/s 722 mmHg 76%
11:00 +14°C° 0 mm 0 m/s 722 mmHg 73%
12:00 +15°C° 0 mm 0 m/s 722 mmHg 69%
13:00 +16°C° 0 mm 0 m/s 721 mmHg 66%
14:00 +16°C° 0 mm 0 m/s 721 mmHg 67%
15:00 +18°C° 0 mm 1 m/s 720 mmHg 68%
16:00 +18°C° 0 mm 1 m/s 720 mmHg 69%
17:00 +15°C° 0 mm 1 m/s 720 mmHg 75%
18:00 +14°C° 0 mm 1 m/s 720 mmHg 81%
19:00 +12°C° 0 mm 1 m/s 720 mmHg 88%
20:00 +12°C° 0 mm 1 m/s 719 mmHg 90%
21:00 +11°C° 0 mm 1 m/s 719 mmHg 92%
22:00 +9°C° 0 mm 2 m/s 719 mmHg 94%
23:00 +10°C° 0 mm 1 m/s 719 mmHg 95%

1 Outubro, Quinta-feira

Tempo Temperatura Precipitação Vento Pressão Humidade
00:00 +10°C° 0 mm 1 m/s 718 mmHg 95%
01:00 +9°C° 0 mm 1 m/s 718 mmHg 96%
02:00 +9°C° 0 mm 1 m/s 717 mmHg 96%
03:00 +9°C° 0 mm 1 m/s 717 mmHg 96%
04:00 +9°C° 0 mm 1 m/s 716 mmHg 97%
05:00 +9°C° 0 mm 1 m/s 716 mmHg 97%
06:00 +9°C° 0 mm 1 m/s 716 mmHg 97%
07:00 +9°C° 0 mm 1 m/s 715 mmHg 97%
08:00 +10°C° 0 mm 2 m/s 715 mmHg 91%
09:00 +13°C° 0 mm 2 m/s 715 mmHg 85%
10:00 +14°C° 0 mm 2 m/s 714 mmHg 79%
11:00 +16°C° 0 mm 2 m/s 714 mmHg 74%
12:00 +17°C° 0 mm 2 m/s 714 mmHg 70%
13:00 +18°C° 0 mm 2 m/s 713 mmHg 65%
14:00 +18°C° 0.1 mm 2 m/s 713 mmHg 69%
15:00 +17°C° 0.1 mm 2 m/s 713 mmHg 74%
16:00 +17°C° 0.1 mm 2 m/s 713 mmHg 78%
17:00 +16°C° 0.3 mm 2 m/s 713 mmHg 81%
18:00 +13°C° 0.3 mm 3 m/s 713 mmHg 85%
19:00 +12°C° 0.3 mm 4 m/s 714 mmHg 88%
20:00 +11°C° 0.3 mm 3 m/s 714 mmHg 89%
21:00 +10°C° 0.3 mm 3 m/s 714 mmHg 90%
22:00 +9°C° 0.3 mm 3 m/s 715 mmHg 91%
23:00 +9°C° 0 mm 3 m/s 715 mmHg 92%

2 Outubro, Sexta-feira

Tempo Temperatura Precipitação Vento Pressão Humidade
00:00 +9°C° 0 mm 3 m/s 715 mmHg 92%
01:00 +8°C° 0 mm 3 m/s 715 mmHg 92%
02:00 +8°C° 0 mm 3 m/s 715 mmHg 92%
03:00 +8°C° 0 mm 2 m/s 714 mmHg 93%
04:00 +8°C° 0 mm 2 m/s 714 mmHg 93%
05:00 +8°C° 0 mm 2 m/s 714 mmHg 94%
06:00 +7°C° 0 mm 2 m/s 713 mmHg 94%
07:00 +7°C° 0 mm 2 m/s 713 mmHg 94%
08:00 +9°C° 0 mm 3 m/s 712 mmHg 87%
09:00 +11°C° 0 mm 3 m/s 712 mmHg 80%
10:00 +12°C° 0 mm 4 m/s 711 mmHg 73%
11:00 +14°C° 0 mm 4 m/s 711 mmHg 67%
12:00 +15°C° 0 mm 4 m/s 710 mmHg 61%
13:00 +17°C° 0 mm 4 m/s 709 mmHg 55%
14:00 +17°C° 0 mm 4 m/s 709 mmHg 58%
15:00 +15°C° 0 mm 4 m/s 708 mmHg 60%
16:00 +16°C° 0 mm 3 m/s 708 mmHg 63%
17:00 +14°C° 0 mm 3 m/s 707 mmHg 67%
18:00 +13°C° 0 mm 4 m/s 707 mmHg 71%
19:00 +13°C° 0 mm 4 m/s 707 mmHg 75%
20:00 +12°C° 0 mm 4 m/s 706 mmHg 78%
21:00 +12°C° 0 mm 3 m/s 706 mmHg 81%
22:00 +12°C° 0 mm 3 m/s 706 mmHg 83%
23:00 +11°C° 0 mm 3 m/s 705 mmHg 86%

3 Outubro, Sábado

Tempo Temperatura Precipitação Vento Pressão Humidade
00:00 +12°C° 0 mm 2 m/s 704 mmHg 88%
01:00 +10°C° 0 mm 2 m/s 704 mmHg 91%
02:00 +10°C° 0 mm 2 m/s 703 mmHg 92%
03:00 +10°C° 0 mm 3 m/s 702 mmHg 93%
04:00 +9°C° 0 mm 3 m/s 701 mmHg 94%
05:00 +10°C° 0 mm 4 m/s 701 mmHg 90%
06:00 +10°C° 0 mm 4 m/s 700 mmHg 87%
07:00 +10°C° 0 mm 4 m/s 699 mmHg 84%
08:00 +11°C° 0 mm 3 m/s 699 mmHg 80%
09:00 +13°C° 0 mm 2 m/s 699 mmHg 77%
10:00 +14°C° 0 mm 2 m/s 699 mmHg 74%
11:00 +13°C° 0.5 mm 4 m/s 700 mmHg 77%
12:00 +11°C° 0.5 mm 6 m/s 700 mmHg 81%
13:00 +11°C° 0.5 mm 8 m/s 701 mmHg 85%
14:00 +10°C° 0.9 mm 7 m/s 702 mmHg 86%
15:00 +9°C° 0.9 mm 6 m/s 703 mmHg 87%
16:00 +8°C° 0.9 mm 4 m/s 704 mmHg 89%
17:00 +8°C° 0 mm 4 m/s 705 mmHg 90%
18:00 +9°C° 0 mm 3 m/s 705 mmHg 91%
19:00 +8°C° 0 mm 3 m/s 706 mmHg 92%
20:00 +8°C° 0 mm 3 m/s 706 mmHg 92%
21:00 +8°C° 0 mm 3 m/s 706 mmHg 92%
22:00 +7°C° 0 mm 3 m/s 707 mmHg 92%
23:00 +7°C° 0 mm 2 m/s 707 mmHg 92%
Mostrar mais